Theta_e
315 315 317 319 319 319 321 320 323 322 324 322 316 320 318 318 320 318 319 318 318 320 319 320 320 321 322 321 324 327 329 331 331 330 333 333 333 334 333 333 333 330 328 327 331 334 334 333 332 332 331 329 329 327 326 323 321 319 322 323 319 316 314 313 314 313 312 310 309 308 308 314 319 324 327 328 329 328 323 313 307 312 321 325 325 324 322 323 324 326 326 326 325 325 321 315 317
314 315 318 319 318 320 321 323 329 325 323 318 315 320 318 317 320 319 321 319 320 321 321 322 321 322 322 321 323 323 327 330 328 331 334 333 335 334 332 333 332 331 329 327 331 333 333 333 331 331 331 330 329 328 326 324 321 320 322 323 321 319 316 314 314 313 313 311 310 308 309 317 320 324 328 328 329 328 323 314 311 314 321 324 325 325 323 324 324 324 325 326 323 322 323 319 317
314 316 318 319 319 321 323 323 327 326 322 318 318 320 318 319 320 321 319 318 321 322 322 321 321 323 322 325 327 323 328 331 330 333 334 335 335 333 333 333 332 332 329 327 330 332 332 331 331 331 330 330 330 328 327 325 322 320 322 324 322 320 317 315 315 314 313 312 311 309 309 316 319 322 326 326 326 326 322 314 314 319 322 324 326 324 321 324 325 324 325 326 323 321 325 323 319
314 317 318 320 322 323 328 329 329 326 321 319 321 321 321 323 322 320 317 321 323 321 320 321 324 323 324 330 330 327 331 332 333 335 335 335 334 333 332 332 333 332 330 328 329 331 331 329 329 330 329 329 329 328 327 326 323 321 321 323 323 321 319 316 315 315 313 313 312 310 313 317 319 322 324 324 324 326 324 315 313 316 322 323 323 321 320 323 325 324 324 324 322 318 320 321 320
315 317 319 320 323 324 326 325 326 325 319 321 320 321 327 325 322 318 317 322 320 318 320 322 327 324 324 328 327 327 332 333 334 335 335 334 334 333 332 332 333 332 332 330 328 329 330 329 328 329 329 329 329 328 327 326 324 322 321 322 324 322 319 317 315 315 314 314 312 313 318 319 320 324 324 325 326 327 327 321 315 312 318 322 321 320 321 324 323 322 320 319 318 317 318 320 321
316 319 319 320 322 321 321 318 319 323 319 322 322 322 326 321 318 317 316 318 317 318 321 322 326 324 326 327 327 327 330 332 333 334 334 335 334 333 332 333 333 332 333 331 329 328 328 329 327 328 329 328 328 327 326 326 326 323 321 322 323 323 320 317 315 315 316 315 313 313 316 317 320 324 325 327 328 329 329 326 320 312 311 319 321 321 322 323 323 321 319 317 317 317 318 317 319
317 320 319 321 321 318 325 323 319 322 316 317 324 325 322 317 315 316 316 317 317 318 320 322 322 324 327 326 327 327 329 331 331 333 334 335 334 333 332 333 333 333 333 332 330 327 327 328 327 327 329 328 327 326 324 325 326 324 322 321 322 322 320 317 315 314 316 316 314 312 310 313 320 325 327 328 329 329 330 328 323 313 307 313 319 320 322 323 322 322 320 316 315 315 316 316 318
318 320 320 325 324 321 326 322 319 322 315 311 318 322 318 316 315 315 316 317 318 318 320 322 320 323 326 324 326 327 328 330 331 333 334 334 334 333 332 333 333 332 332 333 332 328 326 327 327 327 329 328 327 326 324 325 326 326 323 321 321 322 321 318 316 314 316 317 316 313 310 311 319 324 326 327 328 329 329 328 324 313 306 309 315 320 321 321 320 320 318 315 315 315 316 316 318
318 321 321 324 325 326 326 318 317 319 317 316 316 318 317 316 315 314 316 316 316 318 321 321 318 321 323 323 327 326 328 331 332 333 334 334 333 332 332 333 333 332 332 332 332 329 326 326 326 327 328 328 327 326 324 325 326 327 325 322 321 322 322 320 317 314 315 318 318 315 311 310 315 321 324 326 327 328 327 326 323 312 306 307 310 317 319 319 318 317 315 315 316 315 316 316 318
320 322 319 324 327 323 320 316 318 318 317 318 316 317 317 316 315 315 316 315 316 317 318 318 317 319 322 325 328 327 328 331 332 334 335 334 333 332 333 334 333 333 332 331 331 330 328 326 326 327 328 328 327 328 326 325 326 328 327 323 321 322 323 322 318 315 315 317 319 316 313 309 311 315 320 323 325 325 323 322 322 312 305 306 307 315 318 318 317 315 315 316 316 316 315 316 318
321 320 318 327 328 319 319 318 318 319 317 315 315 316 317 316 315 314 315 316 316 316 317 317 319 320 322 324 327 327 329 330 331 333 334 334 332 332 334 334 334 333 333 332 331 331 329 326 325 327 328 328 328 329 328 325 326 327 327 324 322 322 323 323 320 317 316 317 319 317 314 310 309 310 311 315 317 320 318 318 320 311 305 306 306 312 316 316 316 315 316 316 316 315 315 315 316
319 322 329 333 326 321 324 321 317 318 315 316 317 316 317 315 315 315 315 316 316 316 317 318 320 320 321 322 324 326 329 330 331 332 332 334 332 332 335 335 335 334 335 334 332 331 330 328 326 326 328 328 328 329 327 326 326 326 327 326 323 323 323 323 322 319 317 317 318 319 316 312 310 309 308 308 309 312 313 316 316 308 305 306 306 312 314 315 315 316 317 317 315 314 315 315 315
319 323 332 327 320 322 322 319 319 318 315 317 317 315 317 314 315 316 315 316 315 316 317 317 319 318 320 320 321 324 328 329 331 332 330 332 332 333 337 336 335 335 335 335 334 332 330 329 327 327 328 328 328 328 327 326 326 326 327 327 324 324 324 324 323 321 319 318 318 319 318 314 311 309 308 307 306 307 308 311 310 306 306 305 307 313 315 315 316 317 318 316 315 314 315 316 315
321 322 327 322 316 319 319 319 318 317 319 319 315 314 316 314 315 316 315 317 315 316 316 317 318 318 320 320 321 320 324 328 330 331 328 331 332 332 336 337 336 335 336 336 336 334 332 331 329 329 329 328 328 328 328 326 325 326 326 328 325 323 324 324 323 322 321 320 318 318 319 316 312 309 308 307 306 306 306 307 307 305 306 306 310 314 315 316 317 318 318 316 315 314 315 316 317
321 320 328 326 316 315 317 319 317 318 321 318 315 314 315 314 316 316 316 318 315 315 316 318 318 318 319 320 320 316 318 324 327 329 328 329 332 332 335 337 337 336 336 336 336 335 334 333 331 330 330 330 330 330 329 327 326 325 325 328 327 325 324 325 324 323 322 321 320 319 320 318 314 310 309 307 306 306 306 306 306 306 306 307 312 315 316 317 318 319 318 317 315 314 316 317 318
321 318 327 326 316 316 317 316 316 318 318 314 313 314 314 314 315 316 316 316 315 315 315 317 318 318 317 318 319 313 314 319 323 328 326 327 331 332 335 337 337 336 336 336 336 336 335 334 333 332 331 331 332 332 331 329 327 326 325 326 327 326 325 325 324 324 323 322 322 322 321 319 317 312 309 307 306 305 305 305 306 306 306 310 314 316 317 317 319 320 319 317 315 314 316 318 319
317 320 327 324 319 319 317 317 316 319 319 313 312 314 314 314 314 315 315 315 315 315 315 316 317 317 317 318 318 313 314 315 319 324 323 324 329 331 335 337 337 335 336 336 335 336 336 335 334 333 333 333 333 333 333 332 329 327 326 325 327 327 326 325 325 325 325 324 324 323 322 320 319 315 311 308 306 305 305 306 306 307 308 311 314 316 317 318 320 320 320 318 315 314 316 318 319
319 330 329 321 323 323 320 319 314 316 318 312 311 314 315 315 314 314 315 315 315 315 314 315 317 317 317 318 317 314 313 314 316 319 319 320 325 330 334 335 334 332 332 333 335 335 335 335 335 334 334 334 334 334 334 333 332 330 328 325 325 327 327 326 325 325 325 326 325 324 324 321 320 318 313 311 309 307 307 307 309 310 311 313 315 316 318 319 320 320 320 319 315 314 315 317 319
320 329 324 323 329 321 316 316 311 313 315 312 312 313 314 315 314 314 316 315 314 315 315 316 317 317 317 318 317 315 314 314 315 316 316 318 322 327 331 332 330 327 326 328 332 334 334 335 334 334 334 334 334 334 334 334 333 332 330 327 325 326 327 326 326 326 326 326 326 326 326 323 321 320 316 314 312 311 310 311 312 313 314 315 316 317 318 319 320 320 320 319 316 314 315 317 318
317 321 323 329 327 315 312 313 312 313 313 311 311 313 314 314 314 314 315 314 313 315 315 316 316 317 317 317 316 315 314 314 315 316 316 317 318 320 323 324 323 322 320 321 326 330 332 333 334 334 334 334 334 334 334 334 334 333 332 330 327 325 326 327 326 326 326 327 327 326 327 325 323 321 319 317 315 315 315 315 315 316 317 317 317 317 318 319 319 319 320 319 317 315 315 316 318
315 320 327 325 316 314 314 313 313 314 313 312 312 312 313 314 315 314 314 315 314 314 315 316 316 316 315 315 316 315 314 315 315 316 316 317 317 316 317 317 317 317 317 320 323 324 327 331 332 333 334 334 334 334 334 334 334 334 333 333 330 327 326 326 326 327 327 327 327 327 327 327 324 322 321 319 318 318 318 318 318 318 318 319 319 318 318 319 319 319 320 320 319 316 315 316 317
314 316 317 314 311 315 314 312 314 313 313 312 311 313 314 314 314 313 314 317 317 315 315 316 315 315 315 315 315 315 315 315 315 315 315 316 316 316 316 316 317 317 317 319 320 320 322 328 331 333 334 334 334 334 334 334 334 334 334 333 332 330 328 327 327 326 327 328 328 327 327 327 326 323 322 322 321 319 319 320 320 320 320 320 320 319 319 319 319 319 320 320 319 317 315 316 317
317 314 311 312 312 314 314 313 314 313 313 312 311 313 313 313 313 313 313 316 316 315 315 316 315 315 314 315 315 315 315 315 315 315 315 315 315 315 315 316 316 316 316 316 317 319 320 324 329 331 333 333 334 334 335 335 334 334 333 333 333 332 330 329 329 327 326 328 328 328 327 327 327 325 324 324 323 322 321 320 320 321 321 321 321 320 320 320 320 320 320 320 320 317 316 316 317
320 317 311 312 313 313 314 314 313 313 313 313 313 314 313 313 314 313 313 315 315 315 315 315 315 315 314 314 314 314 315 315 315 314 314 315 314 314 315 315 316 316 316 315 316 318 318 320 324 327 330 331 332 333 334 334 333 333 333 333 332 333 332 330 330 329 327 328 328 328 328 328 328 327 326 326 325 324 323 322 321 321 321 321 322 321 321 321 322 321 321 321 320 318 316 316 317
318 317 312 312 313 313 313 313 313 313 313 313 313 313 313 313 313 312 313 314 314 314 316 315 315 314 314 315 314 315 314 314 315 315 315 314 314 315 315 315 316 316 316 315 315 316 317 318 320 322 325 327 329 332 332 332 332 332 331 331 331 332 332 331 330 330 329 328 328 329 329 329 329 328 328 327 326 326 325 324 322 322 321 321 322 322 322 322 323 323 323 322 320 319 316 315 316
314 314 312 312 312 312 313 313 313 313 313 313 314 314 313 313 313 314 315 315 314 314 315 316 316 315 315 315 314 315 315 314 314 315 315 314 315 315 315 315 315 315 315 315 315 314 316 316 317 318 320 323 326 329 330 331 332 332 330 329 330 331 331 330 329 330 330 330 329 330 329 329 329 329 329 327 327 326 326 326 324 323 322 321 322 322 322 322 323 323 323 323 321 320 317 315 315
313 312 311 312 312 313 313 313 313 314 313 313 315 315 313 312 313 316 316 315 315 315 315 316 316 316 316 315 315 315 315 315 314 314 315 315 315 314 314 314 314 314 314 314 314 314 315 315 316 317 319 321 322 325 327 329 330 331 331 329 329 329 330 330 329 329 330 330 330 330 330 330 329 329 329 328 328 327 326 326 326 325 323 322 322 322 322 322 323 323 323 323 322 320 318 315 314
312 312 313 312 311 313 313 313 313 314 314 313 314 314 312 313 314 316 315 314 315 315 315 316 316 316 315 316 316 316 316 315 315 314 315 314 314 314 314 314 314 314 314 314 314 314 314 314 315 316 317 320 320 321 323 325 327 329 330 329 328 327 328 329 328 327 328 329 330 329 330 330 329 327 327 327 327 327 327 326 326 326 325 323 322 322 322 322 322 322 322 322 321 320 318 315 314
312 314 317 314 313 315 313 312 313 313 315 313 313 313 314 315 315 316 314 314 315 314 315 315 315 315 315 316 315 316 316 315 315 315 315 314 314 314 313 313 314 313 313 314 314 314 314 314 314 315 316 318 318 318 320 322 324 326 328 329 329 327 327 326 326 326 325 325 327 328 329 330 329 327 327 327 328 328 327 327 326 325 325 325 323 322 322 322 322 322 322 322 321 320 318 316 314
313 313 317 316 314 315 311 311 313 313 314 313 312 314 319 319 314 314 314 314 315 314 315 315 315 315 315 315 315 315 315 315 315 314 315 314 314 314 314 314 313 313 313 313 313 313 314 314 315 315 315 316 317 317 318 319 321 324 326 328 329 329 328 326 325 325 324 324 326 326 327 328 328 329 329 328 327 328 328 327 327 326 325 325 324 323 322 322 322 322 322 322 321 319 319 316 313
315 311 316 318 313 316 314 310 313 314 313 313 312 314 321 321 313 312 314 313 314 315 315 315 315 315 315 315 315 315 315 315 315 315 315 314 314 314 314 314 313 313 313 313 313 313 313 314 315 316 316 317 317 317 318 318 319 321 323 325 327 328 326 326 326 326 326 329 329 326 326 326 327 329 329 329 328 327 327 327 328 327 326 325 325 324 323 323 323 322 322 322 321 320 318 316 313
321 314 317 317 311 317 317 311 311 314 314 312 312 315 320 320 312 313 314 313 314 314 315 315 315 315 315 315 315 315 315 315 315 315 315 315 315 315 314 315 314 314 313 314 313 313 314 314 315 316 317 318 318 319 319 318 319 319 321 323 325 326 325 327 331 328 328 333 331 327 329 330 329 329 328 328 331 330 327 327 328 328 327 326 326 325 324 323 323 323 322 322 321 320 319 315 312
324 319 321 319 313 316 317 313 310 312 314 312 312 315 321 319 313 314 315 313 314 314 315 315 315 315 315 315 315 315 315 315 315 315 315 315 315 316 315 315 314 314 314 313 314 314 314 314 315 316 317 318 319 320 320 319 319 319 320 322 323 324 324 327 330 328 328 332 330 326 329 333 333 331 329 329 331 330 328 326 327 328 327 327 326 326 325 324 324 324 323 322 321 319 318 315 312
321 319 321 320 317 316 317 317 311 310 314 315 313 314 320 319 313 314 315 313 313 313 315 315 315 315 315 316 315 316 316 316 316 316 316 316 316 316 316 316 315 315 315 314 314 314 314 314 315 316 317 319 320 321 321 320 319 319 320 321 323 324 324 324 325 327 328 329 328 326 328 331 330 328 328 330 330 328 329 328 327 327 326 325 326 326 325 324 324 324 323 323 321 319 317 315 313
318 317 317 317 317 316 318 319 314 312 314 316 316 315 319 319 313 313 314 314 314 314 315 315 316 316 316 316 316 316 316 316 316 316 316 316 316 316 316 316 316 316 316 315 315 315 315 315 316 316 318 319 321 322 322 320 319 318 319 320 321 323 324 324 324 325 327 328 328 328 328 327 326 324 325 329 329 327 328 328 327 327 326 325 325 326 325 323 324 324 324 323 321 318 315 313 313
318 319 321 321 320 318 318 319 312 311 316 317 317 318 319 320 316 314 314 313 312 313 314 315 316 316 316 316 316 316 316 316 315 315 316 316 316 316 316 316 316 316 316 316 316 316 315 315 316 316 318 320 321 322 321 320 319 318 318 318 318 320 321 323 323 323 324 326 326 327 327 326 327 328 327 328 327 326 326 326 325 324 325 326 326 326 325 324 324 324 324 323 321 317 313 311 312
316 319 325 323 321 320 317 316 311 309 315 317 317 319 319 320 318 312 312 312 310 310 312 313 315 315 315 315 315 315 315 315 315 315 316 316 316 316 316 317 316 316 316 316 316 316 316 316 315 316 317 319 320 320 320 318 317 317 316 316 316 316 318 319 320 321 321 322 323 324 325 325 328 331 331 330 329 328 328 326 324 320 322 326 326 326 326 324 323 323 323 323 320 317 314 312 310
315 318 323 320 320 321 315 314 314 309 313 316 316 318 317 318 317 311 309 310 310 311 311 312 314 314 314 314 314 314 314 314 315 315 316 316 316 316 316 316 316 316 316 316 316 316 315 315 315 316 317 318 318 319 319 317 317 316 315 315 315 315 316 316 317 318 319 319 320 320 321 320 322 326 329 328 329 331 329 328 326 321 322 326 326 326 325 324 323 322 323 323 318 315 315 314 310
318 318 321 320 319 319 314 314 315 312 313 317 318 320 319 318 316 311 307 309 311 311 311 312 313 313 313 314 313 314 313 314 314 314 315 315 316 316 316 316 316 316 317 316 316 316 316 316 315 316 316 317 317 318 318 318 317 316 316 316 315 315 315 316 317 317 317 318 317 317 317 317 318 321 323 324 327 329 329 330 327 322 324 327 326 326 325 324 323 322 323 322 319 315 314 314 311
320 320 320 320 317 318 318 315 314 313 313 316 319 319 319 318 318 316 310 308 310 311 312 312 312 313 314 314 314 313 314 314 314 314 314 315 315 316 316 316 317 316 316 317 316 316 316 316 316 315 315 316 316 316 317 318 317 317 316 315 315 315 314 315 316 316 315 315 315 315 316 316 317 318 320 322 324 328 330 330 325 321 326 327 326 326 324 323 323 322 322 321 321 319 316 315 312
319 326 330 324 319 320 319 315 315 314 312 315 316 316 324 327 326 328 317 307 308 310 311 313 313 314 315 315 315 315 315 315 315 315 315 315 314 315 315 316 316 316 316 317 316 316 316 316 316 316 316 316 315 315 316 316 316 316 315 315 314 314 314 314 314 314 313 313 313 313 313 314 316 318 320 320 321 324 325 324 323 324 328 327 325 325 324 324 324 323 323 321 321 321 320 318 312
315 324 332 329 325 323 319 317 317 317 314 313 312 314 332 337 328 329 323 314 313 310 307 310 314 314 313 314 315 315 316 315 315 315 315 315 315 314 315 315 315 316 316 316 317 317 316 316 316 316 316 316 315 315 315 315 315 314 314 314 313 313 313 313 313 312 312 312 311 311 312 313 313 316 319 319 320 320 319 320 324 326 327 326 325 325 322 322 323 323 323 322 321 320 320 319 314
313 316 321 323 325 323 321 318 316 317 313 310 312 315 323 327 323 323 323 320 322 315 309 310 312 312 311 312 313 314 315 314 314 315 315 315 315 315 315 315 316 316 316 316 316 316 316 316 316 316 316 316 315 315 315 314 314 314 313 313 313 313 313 312 312 312 311 311 311 311 311 312 312 314 316 317 319 321 320 320 322 323 322 322 324 324 322 321 323 324 322 321 321 320 320 319 317
313 315 318 323 325 324 324 322 319 320 314 314 320 320 315 317 318 319 318 320 324 322 319 315 310 310 311 312 313 314 314 314 314 315 316 316 315 316 316 316 316 316 316 316 316 317 316 316 316 316 316 316 316 315 315 314 314 313 313 313 313 313 313 312 312 312 311 311 311 310 310 310 311 313 314 315 316 319 321 321 321 323 322 322 323 324 322 322 323 323 322 320 320 320 320 320 318
315 313 318 323 324 326 329 330 328 319 311 317 324 316 312 321 325 320 315 317 320 323 324 317 310 311 313 313 315 315 315 315 316 316 316 317 317 317 317 317 316 317 316 317 317 317 317 317 316 316 316 315 315 315 314 314 314 314 313 313 313 313 313 313 312 312 312 312 311 311 310 310 310 311 312 313 314 317 319 320 321 323 323 322 324 322 321 322 323 322 321 320 320 320 320 319 316
313 310 316 319 321 325 327 328 325 314 311 321 323 313 312 321 329 324 315 315 321 322 322 314 309 313 315 314 315 315 316 316 317 317 317 317 317 316 317 317 317 317 317 317 317 317 317 317 316 316 315 315 315 315 314 314 314 314 313 314 313 313 313 313 313 313 312 312 312 311 310 310 310 310 311 311 312 314 317 318 319 321 321 321 321 320 320 322 322 321 320 321 320 320 319 318 317
310 315 319 317 322 327 328 327 320 310 315 325 321 315 313 314 324 327 317 317 320 320 323 318 311 313 316 315 317 316 316 317 317 317 317 317 317 316 316 316 316 317 317 317 317 317 317 316 316 316 315 315 315 315 314 314 314 314 314 314 314 314 314 314 313 313 313 312 312 311 311 310 310 310 311 311 313 315 316 317 317 318 319 320 320 320 321 321 321 320 320 320 319 319 319 317 317
313 323 322 316 321 325 327 328 318 311 320 321 315 314 313 312 322 327 321 320 318 316 323 324 314 313 315 316 317 317 317 317 317 317 316 316 317 317 316 316 316 316 316 317 316 316 316 316 316 316 315 315 315 315 315 314 314 315 314 314 314 314 314 314 314 314 313 313 312 311 310 310 310 311 310 311 313 316 318 318 318 319 320 320 320 321 321 321 320 319 319 320 319 319 318 317 316
316 319 320 318 321 318 321 327 319 316 320 314 313 315 313 313 319 320 321 322 319 313 314 318 313 312 316 317 317 318 317 317 316 315 315 316 316 316 316 316 316 316 315 315 316 315 316 316 316 316 316 315 315 315 315 315 315 315 315 314 315 314 314 314 314 314 313 313 312 312 311 310 310 310 310 311 312 315 317 318 319 321 321 320 320 320 320 321 320 319 319 320 320 319 318 317 317
315 315 317 320 321 315 317 322 316 316 319 312 311 314 314 317 316 316 319 316 313 309 308 312 312 312 316 317 317 318 316 316 316 315 314 315 317 317 316 317 316 316 315 315 316 316 316 316 316 316 316 315 315 316 315 316 315 315 315 315 314 314 314 314 314 314 313 313 312 312 311 310 310 310 310 310 311 314 316 317 318 320 321 320 319 319 320 321 321 319 319 319 319 319 318 319 318
314 314 314 317 325 322 320 322 319 320 322 315 311 314 320 322 314 313 313 308 309 311 310 311 311 313 317 316 317 317 316 316 315 315 315 315 317 317 317 317 316 316 316 316 317 317 317 317 316 316 316 316 316 316 316 315 315 315 315 315 315 315 314 314 314 314 313 312 312 312 312 310 310 310 310 310 311 313 315 317 317 318 319 319 319 320 321 321 321 319 319 319 319 319 318 319 318
314 312 310 313 321 325 319 316 319 319 318 316 313 317 324 320 313 312 308 306 309 310 310 311 312 314 316 317 318 316 316 317 315 315 315 314 316 316 317 317 316 317 317 317 317 317 317 317 316 316 316 316 316 316 316 316 315 315 315 315 315 314 314 314 314 314 313 312 312 312 312 311 310 310 310 310 312 314 315 317 317 318 318 318 319 321 321 321 321 320 320 319 319 319 319 319 318
314 311 314 317 316 323 319 310 311 312 312 316 316 317 321 316 314 318 314 312 314 311 309 310 312 314 315 316 317 316 317 316 315 316 315 315 315 315 316 316 316 317 316 317 317 316 317 316 316 316 316 316 316 316 316 315 315 315 315 315 314 314 314 314 314 313 313 312 312 312 312 311 311 310 310 310 313 315 316 316 317 318 318 317 319 321 321 320 320 320 320 320 319 319 318 318 318
317 316 316 314 310 318 320 313 317 317 315 318 316 315 319 316 316 320 316 314 317 316 312 309 311 313 313 315 316 315 316 315 316 316 314 315 315 314 316 316 316 317 316 317 317 316 316 316 316 316 316 316 316 316 316 315 315 315 315 315 315 314 314 314 314 313 312 312 312 312 312 311 311 310 310 310 312 315 316 317 318 318 318 318 320 321 320 320 320 320 320 319 319 319 318 318 317
315 316 312 313 316 318 316 313 319 319 315 321 320 314 313 314 318 321 315 314 318 317 315 313 312 313 313 314 314 313 315 315 315 315 314 315 315 315 316 315 316 316 316 316 316 316 316 316 316 316 315 316 316 316 316 315 315 315 315 315 315 315 315 314 314 313 312 313 313 312 312 312 311 310 310 311 312 313 314 315 317 318 319 320 320 321 321 320 320 320 319 318 317 318 318 318 318
310 310 308 315 323 320 315 315 317 316 315 319 322 319 317 316 317 320 315 316 318 316 317 317 312 313 314 313 312 312 313 314 314 315 315 315 316 316 316 316 316 316 316 316 315 315 315 315 315 315 315 315 315 315 316 315 316 315 315 315 315 315 315 314 313 313 313 313 313 312 312 311 311 311 310 310 312 313 312 313 316 317 318 320 320 320 320 320 320 320 319 317 317 318 318 318 318
313 314 312 315 317 315 316 316 315 319 320 320 318 319 324 321 316 316 315 316 318 317 321 319 310 311 314 312 313 314 313 314 314 314 314 314 316 317 316 316 316 316 316 316 315 316 315 315 316 316 316 315 315 315 315 316 316 315 315 315 315 315 315 314 314 313 313 313 313 313 312 312 311 311 310 310 311 313 313 313 316 318 319 320 320 319 318 318 319 320 319 317 317 317 317 317 317
314 315 315 315 315 315 316 314 312 314 317 320 318 314 321 324 316 316 317 315 314 310 311 313 310 312 314 313 314 315 314 315 314 314 314 314 315 316 317 316 316 316 316 316 316 316 315 316 316 315 316 316 316 315 315 316 316 315 316 315 315 315 314 314 314 314 314 313 313 313 312 312 311 311 311 310 310 312 313 313 315 317 319 319 319 318 317 317 318 319 318 317 316 316 317 317 317
Wind_Speed
2 1 1 3 3 2 3 3 2 3 4 2 0 2 2 2 2 2 3 1 1 1 3 7 12 15 8 6 8 8 7 5 5 4 3 9 19 21 18 20 19 17 16 16 17 16 15 13 11 9 8 7 7 7 7 8 10 11 12 13 15 16 15 15 13 13 12 12 12 12 14 14 16 17 16 13 11 10 10 12 11 13 17 16 16 17 17 18 18 19 18 18 18 18 17 18 20
1 2 3 3 3 2 1 4 2 3 5 1 2 3 2 2 2 5 5 3 4 8 13 15 16 14 10 10 10 9 5 2 4 5 10 20 23 20 19 20 19 17 16 15 16 16 15 13 11 10 8 7 6 6 6 8 9 10 12 13 14 15 15 15 14 13 12 12 12 12 14 14 15 15 13 12 11 10 11 11 11 14 16 16 16 16 17 18 18 18 18 18 17 18 19 18 19
2 4 4 3 2 3 2 4 2 1 4 2 4 3 1 1 5 6 6 7 14 17 16 14 12 9 7 7 5 4 3 2 8 12 19 24 22 21 19 19 18 16 15 15 15 15 14 13 11 10 9 8 7 5 5 7 8 10 11 12 13 14 15 14 14 13 12 12 11 12 13 14 15 15 13 11 9 9 10 11 11 14 15 15 15 15 17 18 18 18 18 18 17 18 19 17 18
3 5 4 3 2 3 3 3 2 4 3 4 3 4 2 4 7 5 6 15 18 12 7 6 6 6 4 5 5 5 5 7 13 18 22 23 20 20 20 20 19 16 16 15 15 14 13 12 11 10 9 8 7 5 5 6 7 9 10 11 11 12 13 14 13 13 13 12 11 11 12 14 16 15 14 11 9 9 9 12 12 12 14 14 14 15 16 17 17 17 17 17 16 16 17 17 19
4 4 3 2 1 2 3 3 2 5 4 5 2 5 5 6 7 6 9 14 11 4 3 5 4 5 7 7 4 3 6 10 16 20 22 21 19 19 20 20 18 17 16 15 14 13 12 11 10 9 8 7 7 5 5 5 6 7 9 9 10 11 12 12 13 13 13 12 11 10 11 13 15 15 13 12 10 9 8 9 11 10 12 14 14 15 16 16 15 15 15 15 16 17 17 18 18
6 6 3 1 3 2 3 2 2 2 5 5 4 5 5 7 8 9 10 9 6 5 6 5 7 8 7 6 5 8 11 11 16 20 21 20 19 19 20 19 17 16 16 15 14 13 12 11 10 9 8 7 6 5 4 4 4 6 8 8 9 10 11 12 12 13 13 13 12 10 11 13 15 15 12 12 11 10 7 6 9 8 9 12 14 15 15 16 15 15 15 15 15 16 17 17 18
7 5 2 2 3 3 2 3 4 3 3 5 4 5 7 8 9 10 9 7 5 7 6 7 12 10 5 6 7 10 11 11 17 20 21 20 19 20 19 18 17 16 16 15 15 14 13 12 10 10 9 8 7 5 4 4 4 5 6 7 8 9 10 11 11 12 12 13 12 11 11 13 16 15 13 12 11 10 6 4 7 7 7 9 13 15 14 15 15 15 15 14 14 15 16 16 17
7 4 2 3 3 4 4 3 3 3 1 4 4 5 11 12 12 9 6 5 4 5 8 12 12 7 3 4 5 8 10 13 18 20 21 20 20 20 19 18 17 16 16 15 15 14 14 13 11 10 10 9 8 6 5 4 3 4 5 6 7 8 9 10 11 11 11 12 12 11 11 12 15 15 13 12 11 10 7 5 6 7 6 7 11 14 14 15 14 14 14 13 14 14 14 14 15
7 3 2 3 2 3 3 2 1 2 2 4 3 6 12 13 12 8 5 4 5 9 12 13 6 3 6 4 5 9 12 15 17 20 21 20 21 20 19 18 16 16 16 15 15 15 14 13 12 11 10 10 9 7 6 5 4 3 4 5 6 8 8 9 10 10 11 11 12 11 10 11 13 14 13 13 11 10 8 6 8 7 6 7 9 13 14 15 14 13 13 12 12 12 12 13 14
5 3 3 3 2 3 2 1 1 2 3 3 3 8 13 14 11 7 6 5 8 10 10 10 3 6 11 6 7 11 14 15 18 21 21 20 21 21 20 18 16 15 15 16 15 15 14 13 13 12 11 10 9 8 7 5 4 3 3 4 6 7 7 8 9 10 10 11 11 11 10 9 10 11 12 12 10 9 6 7 9 8 7 8 9 12 14 14 14 13 12 12 11 11 12 12 13
3 3 4 4 3 2 2 2 3 3 3 3 3 8 14 15 10 5 7 7 8 8 9 8 3 11 12 6 8 12 15 16 18 21 20 21 22 21 20 18 17 15 15 15 15 15 14 14 13 13 11 10 10 9 7 6 5 4 3 3 5 6 6 7 8 9 10 10 10 10 9 8 7 7 8 8 7 7 5 7 9 8 8 9 9 12 13 13 13 13 13 12 11 11 12 12 12
2 2 4 3 3 3 4 4 3 3 3 3 2 8 13 13 8 6 8 9 7 6 9 7 6 13 8 3 9 14 17 17 19 19 19 22 22 21 20 19 18 16 15 15 15 15 14 15 14 13 12 11 10 9 8 7 6 5 3 3 4 5 6 6 7 8 9 9 9 10 9 7 6 5 6 5 5 6 5 7 10 10 10 10 11 12 12 13 13 13 13 12 11 11 12 12 12
4 2 5 2 3 3 4 4 3 0 3 4 5 8 13 12 9 12 12 10 8 6 6 6 11 13 4 2 8 16 18 18 21 20 19 21 22 21 20 19 18 17 16 16 16 16 15 15 15 14 13 12 11 10 9 8 7 6 4 3 4 5 5 5 5 7 8 8 8 9 9 8 6 5 6 5 5 6 6 9 11 11 11 11 12 12 11 12 13 12 12 11 11 11 12 12 13
5 4 5 2 2 3 5 3 2 3 3 6 6 9 14 10 9 15 15 8 6 7 5 7 14 10 4 4 8 18 21 20 23 21 20 21 22 22 20 19 18 19 17 17 16 16 16 16 15 15 14 14 12 12 11 10 9 8 6 5 4 5 5 5 5 5 6 7 7 8 8 8 7 6 5 5 6 6 7 10 12 12 12 12 12 12 11 11 12 11 10 11 12 12 12 13 13
6 5 4 3 2 2 4 2 3 6 4 5 7 12 14 9 9 15 15 9 5 7 8 10 14 5 4 7 7 19 22 21 24 22 22 22 21 21 20 20 19 19 18 17 17 16 17 16 16 15 15 14 13 13 12 11 10 10 8 6 5 5 5 4 4 4 5 6 7 7 7 7 7 6 6 6 6 6 7 9 11 11 12 13 12 11 11 10 10 10 10 10 11 12 13 13 13
6 4 4 3 2 2 3 2 4 4 5 6 10 14 11 6 11 15 12 9 8 11 10 10 14 5 5 7 4 16 22 22 25 23 23 23 23 22 20 20 19 19 19 19 18 18 18 17 18 17 16 15 14 14 12 12 11 11 10 8 6 5 4 4 4 3 4 4 5 5 5 6 7 6 6 7 7 7 8 9 9 10 11 12 12 11 11 10 10 9 10 10 10 11 12 13 13
6 3 4 2 3 3 4 4 5 4 5 6 11 15 9 3 11 13 9 9 11 14 10 9 15 10 7 6 4 16 22 21 24 24 24 25 25 24 23 23 21 21 20 20 19 19 19 18 19 18 18 17 16 15 14 13 12 12 11 10 9 7 5 4 4 3 3 3 3 4 4 5 6 6 6 7 8 8 8 8 8 9 10 11 11 11 11 10 9 9 9 9 9 10 11 13 13
4 3 3 2 3 4 6 8 8 4 5 10 14 17 11 6 11 12 7 8 12 13 10 11 15 11 9 8 6 17 21 20 24 24 25 26 27 26 26 25 24 23 22 22 21 21 20 20 20 20 19 18 17 16 15 14 13 13 12 12 11 9 7 6 5 4 4 3 2 3 4 4 5 5 6 7 8 8 8 8 7 8 9 10 10 10 10 10 9 8 8 9 9 9 10 12 13
3 3 3 3 5 5 5 8 10 4 5 13 15 16 14 10 14 15 7 6 10 9 7 10 12 11 11 10 10 17 21 20 22 22 24 25 26 27 27 27 26 25 23 22 22 22 22 22 21 21 20 19 18 18 17 16 15 14 13 13 13 11 10 8 6 5 5 4 3 3 4 5 5 5 6 7 9 9 8 7 7 7 7 8 8 9 9 9 8 7 7 7 8 9 10 11 13
2 3 2 5 6 4 3 5 11 7 5 14 15 13 12 12 15 14 9 7 7 7 10 11 12 13 13 12 14 19 21 21 22 22 22 23 24 25 25 26 25 24 22 21 22 23 23 23 22 22 21 20 20 19 19 18 17 16 15 14 14 13 12 10 9 7 7 6 5 4 4 5 5 6 6 7 8 8 8 7 7 6 6 6 6 7 8 8 7 7 6 6 6 8 10 11 13
2 4 3 5 4 2 3 3 8 9 8 15 16 11 9 12 14 13 11 8 3 11 18 17 15 17 15 15 17 20 22 21 22 22 22 23 23 22 22 22 21 20 20 21 22 22 23 23 23 22 22 21 21 20 20 19 18 17 16 15 15 14 13 12 11 10 9 8 7 5 5 5 6 7 7 8 8 7 7 7 7 7 6 6 6 6 7 8 8 7 6 6 6 7 9 11 13
3 1 2 3 4 2 2 0 4 8 9 14 14 10 9 12 11 12 15 9 7 16 21 19 16 16 16 16 18 21 22 22 23 23 23 23 23 22 21 21 20 20 20 21 21 21 21 23 23 23 23 22 22 22 21 20 20 18 18 17 16 16 15 14 13 12 11 10 9 7 7 6 7 8 8 8 8 8 7 7 8 8 8 7 8 8 8 8 8 7 7 6 6 7 10 12 13
3 1 2 2 4 1 1 1 3 8 13 16 14 10 10 12 7 11 17 15 12 12 16 18 15 14 16 17 19 20 22 22 22 22 21 22 22 21 20 20 21 20 20 20 20 20 21 22 24 23 24 24 23 22 22 22 21 20 19 18 17 17 17 16 15 14 13 12 11 9 8 8 8 9 10 9 9 9 8 8 9 8 9 8 9 9 9 9 9 8 8 8 7 8 11 13 14
3 1 1 2 2 1 2 2 5 9 15 16 13 10 9 11 6 8 17 21 15 8 10 15 15 15 17 18 19 19 19 20 19 19 19 18 18 18 18 20 20 21 21 20 19 20 21 22 23 24 24 24 24 23 23 23 22 21 21 19 19 19 18 18 17 16 15 14 13 11 10 9 10 10 11 11 10 10 9 9 9 9 9 9 10 10 10 10 10 9 9 9 8 9 11 14 15
3 3 3 4 4 3 4 4 8 8 12 13 11 7 7 9 4 5 16 21 17 12 9 11 14 17 17 18 19 19 19 19 19 19 19 19 18 19 21 22 22 23 24 22 21 20 21 22 23 24 24 25 24 24 24 24 23 23 22 21 20 20 19 19 18 17 17 16 15 14 12 12 11 11 13 13 12 11 10 10 10 10 10 10 11 11 11 11 10 9 9 9 9 10 12 14 16
3 6 6 6 4 5 6 7 9 8 9 10 9 3 3 6 1 6 16 18 16 15 12 10 12 16 18 19 19 19 20 20 19 19 19 19 21 23 23 22 23 24 24 23 23 22 21 23 24 24 24 24 24 24 25 25 24 24 23 22 21 21 20 20 19 19 18 18 17 16 14 13 12 12 13 14 14 12 11 11 10 10 11 12 12 12 12 12 11 10 10 10 10 11 12 14 16
9 13 11 8 5 3 4 6 8 8 7 7 7 1 1 4 1 6 11 13 17 17 14 13 12 13 16 17 18 19 19 19 19 19 19 21 22 23 23 23 24 24 23 23 24 23 22 23 25 25 24 24 25 25 25 26 25 25 25 24 23 22 22 21 21 22 21 20 19 18 16 15 14 13 14 15 15 14 14 13 12 11 12 13 14 14 14 13 13 12 12 11 12 12 13 15 16
16 18 11 7 4 3 3 6 6 5 5 3 5 1 2 2 2 8 9 9 16 19 18 17 15 13 13 14 17 19 20 19 20 21 21 21 21 21 21 22 22 22 22 22 22 23 23 24 24 25 25 24 25 25 25 26 25 25 26 26 25 24 23 23 24 24 23 22 21 19 18 16 15 15 14 14 14 14 15 14 13 12 13 14 15 16 16 15 15 14 14 13 13 13 14 16 17
14 12 6 6 6 4 1 2 2 3 3 2 5 1 4 2 8 12 8 8 14 18 20 20 19 17 16 15 17 19 20 20 22 24 22 20 19 19 20 20 20 21 21 21 22 23 23 24 24 24 24 24 25 24 24 25 25 25 26 27 27 26 25 25 24 24 23 22 22 20 18 18 16 15 14 14 15 15 16 15 13 12 12 14 17 17 17 17 17 16 16 16 16 15 15 17 18
7 4 4 3 6 3 2 1 1 3 2 2 5 1 6 8 14 13 6 8 13 18 20 21 21 20 19 18 19 20 20 22 24 24 21 20 20 20 20 19 21 21 20 21 22 22 22 23 23 23 23 24 24 23 23 24 24 25 26 27 27 27 27 26 24 23 22 22 22 21 19 19 18 17 17 17 17 18 18 17 17 16 14 14 17 19 19 19 19 19 18 18 18 17 17 18 20
3 2 3 3 2 4 4 2 2 4 1 1 5 2 6 8 10 10 9 10 12 18 21 22 23 22 22 21 21 22 22 23 24 23 22 21 21 21 21 21 22 22 22 22 22 21 21 22 22 23 23 24 23 22 22 22 23 24 25 26 26 27 27 25 24 22 21 24 23 21 21 20 19 19 20 21 21 20 20 20 20 19 17 15 17 20 22 21 20 20 21 21 20 20 20 19 21
3 3 1 2 4 4 7 2 4 5 2 1 5 2 7 8 6 3 9 13 14 18 20 21 23 23 23 23 23 23 23 23 24 24 24 23 23 23 22 22 23 23 24 23 22 22 22 22 22 22 23 23 23 22 22 22 23 23 24 25 25 26 26 25 27 25 23 27 25 23 26 24 22 21 22 26 27 23 22 24 23 22 20 18 17 20 24 23 21 22 22 23 22 22 22 22 22
4 3 3 2 3 2 4 2 2 3 3 1 2 2 4 5 4 3 3 10 14 17 18 18 20 21 22 23 24 24 24 24 25 25 24 24 23 23 23 23 23 24 24 24 23 23 23 22 22 22 22 22 22 21 21 22 24 24 24 25 25 26 26 25 29 27 24 30 29 27 29 28 26 26 26 27 27 28 29 28 25 24 23 22 21 21 25 24 22 22 23 23 24 23 24 23 23
2 2 2 3 3 3 2 3 3 2 3 0 2 1 6 7 7 6 3 5 12 15 17 18 18 20 21 22 24 24 25 25 26 25 23 23 22 22 23 23 23 24 24 25 24 24 23 23 23 22 22 22 22 22 22 23 24 25 25 26 26 26 27 26 27 27 27 30 31 29 29 30 30 30 31 29 28 31 34 32 28 25 22 24 26 24 26 26 22 22 23 24 25 25 25 24 23
5 3 3 2 2 3 3 3 3 2 3 2 1 2 10 11 13 14 8 5 9 14 17 18 18 20 21 23 25 25 26 27 27 24 22 23 23 22 22 22 23 23 23 24 24 24 24 24 24 23 23 23 23 23 23 24 25 26 26 26 27 28 28 28 28 28 29 30 31 31 30 31 31 30 32 31 30 31 32 32 31 28 25 27 30 28 27 28 24 22 24 26 26 26 25 24 24
9 6 5 5 4 4 4 4 4 2 4 3 4 4 9 10 11 15 15 10 11 16 18 20 22 22 24 25 27 28 29 30 28 24 23 23 23 22 22 22 22 22 23 24 24 25 25 25 25 25 25 25 25 25 25 26 26 27 27 27 28 29 29 30 30 30 31 31 32 32 31 30 31 34 35 33 33 34 32 32 31 32 32 32 31 31 30 29 25 24 26 29 30 29 27 26 26
7 6 4 4 4 3 3 2 4 1 4 3 3 4 8 11 9 15 21 16 13 18 21 24 27 28 30 31 32 32 32 31 28 26 24 24 24 23 22 22 23 23 23 23 24 25 25 25 26 26 26 26 27 27 27 27 27 27 28 28 28 29 29 30 31 32 32 32 32 32 32 30 31 35 35 34 38 41 39 35 31 31 34 35 35 33 31 30 27 26 28 31 32 31 30 29 29
6 6 5 2 2 3 2 1 3 3 2 2 2 3 9 12 10 15 20 13 13 22 23 26 31 32 34 35 35 35 32 30 27 26 25 24 24 24 24 25 25 25 23 23 23 23 25 26 26 26 26 27 28 28 27 27 27 27 27 27 27 27 29 30 31 31 32 32 33 32 33 32 33 34 36 37 41 44 44 37 31 31 33 34 36 34 32 33 31 29 30 32 33 31 31 31 33
5 4 6 3 2 2 1 1 3 4 0 3 3 4 9 12 10 14 19 16 19 25 25 27 30 31 35 36 36 34 32 31 29 28 26 25 25 24 26 27 26 26 24 24 23 23 25 26 26 26 26 27 28 28 28 28 27 27 27 27 27 28 29 30 30 31 32 32 33 33 34 34 33 35 38 39 38 41 44 40 34 39 40 37 37 35 33 35 35 31 31 33 34 33 33 33 34
4 4 6 3 2 2 1 2 3 4 2 1 1 3 7 8 7 11 17 19 21 23 24 27 29 31 35 35 34 33 31 30 27 24 23 23 25 25 26 26 26 27 27 26 25 23 24 24 25 26 26 27 28 29 29 28 28 28 28 28 29 30 30 30 31 31 32 32 33 33 34 34 34 33 35 38 38 38 41 41 37 40 42 41 40 36 33 37 38 34 33 35 36 35 35 35 34
1 3 6 4 4 4 3 2 1 3 4 3 3 4 6 5 5 7 8 8 11 14 16 22 24 25 27 27 27 25 24 22 20 18 16 17 21 23 23 24 25 27 27 25 24 22 22 22 23 25 26 27 27 28 28 28 28 28 29 29 30 31 31 32 33 32 32 32 32 33 33 34 34 34 34 36 38 38 40 42 41 40 41 42 42 36 33 38 38 35 36 37 38 39 37 36 36
1 3 6 7 7 7 3 3 5 4 4 4 4 3 6 5 5 7 5 6 8 8 9 18 21 18 18 19 18 16 16 16 16 15 13 14 16 17 19 21 23 23 23 22 21 21 20 21 22 23 25 26 26 26 27 27 27 28 28 30 30 31 31 32 32 31 30 30 31 32 33 34 34 34 35 36 37 39 40 40 40 41 40 40 41 37 33 38 40 38 38 38 39 40 38 37 38
2 3 5 7 8 9 7 5 4 2 2 3 3 3 5 7 6 8 6 7 11 10 10 20 22 14 13 15 13 13 14 15 16 14 12 12 13 14 15 16 17 17 17 18 19 19 19 19 20 22 22 23 23 24 25 25 26 27 28 29 29 30 31 31 30 29 29 29 30 32 33 34 34 34 35 37 37 38 37 37 37 38 38 39 40 38 37 42 43 42 41 39 39 41 40 40 41
3 2 6 8 9 8 7 6 4 2 3 4 4 4 2 6 6 6 5 6 10 11 10 16 18 12 11 12 10 9 9 10 11 10 8 9 9 10 11 11 12 13 14 16 16 16 17 17 18 19 20 20 21 22 23 24 25 26 27 28 29 29 29 29 29 29 29 29 30 31 33 34 35 35 35 37 38 39 37 37 37 38 42 43 41 39 41 44 44 43 42 40 41 43 42 42 43
3 3 7 7 7 8 5 6 4 1 1 4 4 2 2 6 7 5 5 4 8 10 10 12 15 15 11 8 6 6 7 7 7 6 6 6 7 7 8 9 10 11 12 12 13 14 15 16 17 17 18 18 18 20 21 23 24 25 26 27 27 27 27 27 27 28 29 29 30 31 32 33 34 34 34 35 37 39 39 39 38 38 39 40 39 39 41 43 44 46 44 41 42 44 43 43 44
5 6 8 7 7 6 5 5 4 3 2 5 5 2 2 5 7 5 2 2 7 10 9 9 12 13 6 2 4 7 7 6 5 4 4 4 5 7 8 9 10 10 11 12 13 15 16 16 17 17 16 16 17 18 20 21 23 24 24 24 24 23 24 24 26 27 27 28 29 30 31 32 32 32 32 33 34 37 38 40 41 41 41 41 42 42 43 44 47 47 45 42 42 43 43 44 43
11 7 7 8 7 6 4 3 4 4 2 7 6 2 1 3 6 5 4 4 6 5 6 7 9 10 5 1 3 6 6 5 4 2 2 2 4 5 7 8 10 11 12 14 15 16 16 16 16 16 15 15 16 17 18 19 20 21 20 20 20 20 21 22 24 25 25 26 27 28 29 30 30 31 31 30 31 33 34 35 37 39 40 41 42 42 43 44 46 44 43 43 43 43 44 43 41
9 5 5 5 4 5 4 5 4 1 5 6 4 1 2 4 6 5 5 6 6 6 5 7 8 11 8 1 3 6 8 7 5 3 1 1 2 4 4 6 8 11 13 14 15 15 15 15 15 15 15 14 15 16 17 18 18 18 18 18 18 18 19 20 22 23 24 24 25 26 27 29 29 30 30 31 31 33 34 34 35 36 37 38 39 39 39 40 41 41 42 44 44 45 44 42 41
5 5 7 5 2 3 2 3 1 3 6 3 2 1 2 6 8 8 10 10 7 9 10 9 9 13 11 2 3 5 7 7 6 3 1 1 2 2 2 4 6 8 11 12 12 13 13 13 14 14 14 13 14 15 16 17 16 16 16 16 16 17 18 19 21 22 23 24 24 24 26 28 29 29 30 31 32 34 35 35 36 37 37 38 38 36 34 36 38 40 42 43 44 43 41 40 39
4 6 6 5 3 2 2 4 2 4 4 2 2 2 3 5 5 9 14 10 6 9 12 11 11 14 12 2 4 4 4 6 5 3 1 1 1 2 3 5 7 8 9 10 11 11 12 13 14 14 13 13 14 16 16 16 15 15 15 15 16 17 18 19 21 22 23 23 23 24 25 26 27 28 28 29 30 33 36 36 36 37 37 37 36 34 33 35 37 39 40 40 40 39 38 39 38
2 3 5 5 5 5 4 4 3 4 3 3 3 2 3 3 2 7 12 12 12 15 15 13 13 13 9 2 4 4 3 5 5 2 4 5 6 6 6 8 9 9 10 11 12 12 13 13 14 14 13 14 15 16 16 15 15 14 15 16 17 18 19 20 22 23 24 23 22 23 25 25 26 27 26 26 26 29 34 37 37 36 37 37 35 34 34 35 36 36 37 38 37 37 38 39 38
1 2 5 3 5 5 3 4 5 3 1 2 2 3 4 4 6 9 9 10 13 15 13 10 9 9 8 6 5 5 4 5 6 4 4 6 7 8 8 8 9 11 12 13 12 12 12 13 14 14 14 14 16 16 16 15 15 16 16 17 18 19 20 22 23 23 24 23 22 22 24 25 24 24 24 24 24 26 30 35 39 38 37 37 36 35 35 34 35 36 37 38 39 39 40 40 39
2 2 3 5 4 7 6 2 1 3 1 3 1 4 5 4 7 9 6 7 10 10 9 9 8 8 10 12 10 9 7 5 6 6 4 5 7 8 8 9 10 11 14 14 12 12 11 11 13 13 14 16 17 17 17 16 17 17 18 18 19 20 21 23 23 24 24 23 22 22 23 24 24 23 23 23 25 26 27 30 35 37 36 37 37 36 35 35 37 38 40 41 41 41 42 42 39
5 3 6 4 2 5 5 2 3 4 2 4 1 4 5 2 3 7 6 6 10 9 9 11 11 9 11 15 15 12 9 6 6 6 5 5 5 6 8 9 10 10 13 14 13 13 12 12 13 14 15 16 17 18 18 18 19 19 19 20 20 21 22 23 24 25 24 22 21 22 23 24 24 22 22 23 25 27 29 30 32 34 35 36 38 38 37 37 38 40 42 43 43 43 43 41 38
4 4 4 4 3 2 2 3 2 1 2 4 4 3 4 4 5 4 2 6 9 8 7 8 10 12 14 14 10 7 6 6 6 5 5 4 3 3 5 7 8 9 11 13 14 14 12 11 12 14 16 18 19 20 20 21 21 21 21 21 21 22 23 24 25 25 24 22 21 22 23 24 24 22 23 24 26 28 30 32 33 34 35 36 38 40 41 41 41 42 44 44 43 43 42 40 38
3 3 3 2 2 4 3 3 4 4 3 3 4 4 3 6 6 5 7 9 7 4 2 4 11 16 16 11 7 4 2 2 5 7 8 7 4 1 3 3 5 8 10 11 12 12 9 7 6 9 12 16 20 22 21 22 23 23 22 22 22 22 23 25 26 25 24 23 22 22 23 24 24 23 23 25 27 29 30 31 33 35 37 38 38 40 44 44 43 43 44 42 41 41 42 42 41
3 3 4 2 1 2 2 1 2 4 4 3 2 4 6 6 4 7 10 9 8 6 4 6 11 13 12 11 9 3 5 8 9 10 11 13 10 4 1 0 3 5 7 7 8 7 6 3 2 4 7 11 16 21 22 23 23 24 24 23 23 24 24 26 26 26 25 24 23 24 24 24 25 25 24 25 28 29 30 31 32 34 35 36 36 37 41 44 44 44 44 43 42 42 44 44 43
5 5 6 6 4 4 3 2 1 2 3 4 3 4 8 6 4 7 8 7 8 7 6 8 9 6 3 1 2 6 8 9 10 11 12 14 15 11 6 3 5 6 7 7 7 7 5 3 2 3 4 6 10 14 20 22 24 25 26 25 25 26 26 27 27 27 27 25 25 25 25 25 26 26 25 26 27 29 30 31 33 35 35 34 33 33 35 39 42 44 45 45 44 44 44 44 45
Wind_Direction
230 151 115 104 99 108 23 34 101 8 66 92 3 137 219 199 200 151 134 178 112 13 176 150 129 142 145 132 144 117 109 151 157 133 183 152 143 157 161 160 160 160 159 151 151 151 152 152 151 151 145 132 117 102 82 73 66 64 68 63 60 59 59 60 64 71 75 76 76 77 78 85 93 94 97 100 91 85 86 82 80 89 95 96 95 94 93 93 93 93 93 93 94 94 92 91 90
182 128 107 104 85 90 18 43 93 345 56 103 258 160 249 316 141 176 180 192 148 114 113 118 114 114 105 107 108 88 84 142 155 132 138 142 147 159 162 161 159 161 161 155 155 154 156 154 153 154 148 136 123 108 85 75 66 65 69 68 64 61 61 60 62 68 73 77 77 79 81 86 94 98 98 99 97 91 89 83 80 91 96 96 94 95 96 94 94 94 93 91 91 91 90 90 91
138 122 105 114 78 57 82 50 83 77 86 167 258 243 262 151 183 204 196 154 132 119 106 104 97 84 81 90 75 76 91 146 144 130 138 148 154 158 161 162 160 164 162 158 159 156 157 157 156 154 151 141 130 119 94 82 69 68 72 72 68 63 63 62 62 65 72 77 78 82 87 88 93 98 100 99 97 91 85 83 89 97 99 99 98 100 98 96 94 93 94 92 88 90 95 96 95
119 121 104 114 90 50 71 51 122 123 134 192 247 262 239 179 192 206 154 136 133 123 109 100 76 52 64 98 90 88 108 140 143 140 148 155 158 157 159 161 162 166 163 162 162 159 160 161 158 156 154 145 137 128 108 92 75 70 76 78 72 67 65 65 65 67 72 78 81 86 93 94 95 99 102 102 95 86 88 91 93 97 101 102 102 103 100 98 97 95 96 95 90 92 98 99 98
115 124 113 109 75 66 87 70 110 117 183 182 173 256 240 198 182 174 144 143 152 158 147 122 86 82 89 97 93 109 138 146 148 150 154 156 159 161 160 161 164 167 166 167 166 164 165 166 162 159 156 148 140 135 120 103 81 69 75 81 75 70 68 69 68 69 73 78 83 86 95 103 103 102 103 102 93 81 85 93 94 92 100 103 100 103 102 101 99 96 97 94 89 91 97 99 99
124 128 119 89 76 103 117 119 155 165 215 165 154 242 224 201 177 152 141 143 162 163 154 134 129 124 93 70 81 129 139 146 154 155 154 156 163 166 162 161 166 170 171 171 169 170 169 170 168 164 161 153 147 141 129 113 89 69 72 78 77 72 69 71 70 69 71 75 82 84 93 111 114 108 110 106 99 92 86 88 95 95 99 104 102 102 102 100 99 94 94 92 87 86 91 97 100
134 136 115 107 72 58 105 147 191 196 205 170 177 204 191 196 176 149 139 132 132 151 154 139 133 121 96 82 100 135 143 151 156 156 156 160 166 169 166 163 169 173 175 175 172 172 173 175 174 173 168 160 157 154 141 129 108 79 76 78 81 78 75 75 71 70 71 72 78 81 89 114 122 115 116 114 109 107 105 99 103 104 100 107 106 104 102 102 100 95 93 91 86 83 86 94 99
136 142 94 108 57 32 91 117 209 191 171 215 224 189 181 182 169 159 153 142 142 158 146 143 133 106 128 129 133 151 150 156 158 159 161 166 171 171 170 167 171 174 177 179 176 174 176 177 179 181 177 169 165 166 159 146 131 99 86 83 85 84 83 79 73 73 76 74 76 82 89 112 127 121 120 123 122 121 127 130 117 113 109 115 110 105 108 107 103 98 93 88 85 86 89 96 102
140 147 81 93 88 36 59 52 270 220 260 239 225 188 181 176 170 164 143 121 135 143 142 152 141 115 167 152 152 158 153 161 164 164 166 171 174 174 173 171 173 176 179 181 180 178 178 180 183 187 187 178 173 176 171 157 148 120 95 90 89 89 89 81 75 75 78 77 76 82 90 111 132 134 136 137 136 138 146 148 124 116 117 126 117 107 110 109 105 102 96 89 88 92 97 103 109
138 124 108 81 89 50 37 349 288 232 261 247 213 192 179 175 178 168 141 124 140 141 146 165 151 141 160 152 155 163 159 167 172 171 172 174 176 176 174 173 175 180 182 182 184 183 181 184 186 191 195 187 182 182 176 167 161 138 110 101 99 96 94 85 77 77 80 80 77 80 88 105 131 147 152 152 151 150 153 145 127 122 127 132 123 110 111 111 110 108 102 96 94 99 107 111 115
125 78 109 75 80 106 174 204 257 255 284 320 269 202 181 177 175 162 138 130 146 144 150 167 152 141 145 149 163 169 167 173 178 176 177 176 177 176 175 175 176 182 186 184 186 185 184 188 188 192 198 195 188 186 184 180 174 157 138 118 111 108 101 92 82 79 80 81 79 79 84 95 117 140 146 155 170 168 155 137 134 136 138 138 130 120 117 116 116 114 107 101 101 105 112 118 123
159 44 90 87 138 182 185 169 224 260 323 333 230 201 186 180 172 162 145 142 153 142 155 173 170 149 131 157 174 174 172 174 179 183 183 180 178 175 177 178 177 182 188 189 189 188 188 192 192 192 197 200 196 194 198 196 189 177 165 150 128 120 112 103 90 84 83 83 83 81 83 89 99 116 124 138 163 173 160 140 144 147 146 143 138 132 126 125 123 116 109 106 107 110 113 118 128
181 123 101 113 163 155 149 146 213 320 335 262 202 193 187 187 189 175 152 144 156 140 157 186 173 156 131 189 183 181 177 176 180 189 191 185 183 179 179 180 180 183 188 194 192 193 192 195 196 194 197 200 200 201 206 208 204 195 184 172 148 135 127 119 106 95 90 86 86 85 83 86 92 105 120 128 137 150 151 147 152 154 151 148 146 140 134 131 125 117 111 109 111 114 113 114 123
172 137 120 122 103 122 140 130 204 153 241 247 200 189 187 198 202 175 154 142 165 155 156 178 171 159 154 182 193 187 179 178 182 189 193 190 190 185 182 182 184 185 189 195 195 198 197 198 201 199 200 200 203 204 207 213 212 208 198 182 163 154 147 138 128 109 101 95 91 90 85 84 89 101 116 122 128 137 145 150 155 157 155 152 150 146 139 133 125 117 110 107 111 116 114 113 118
153 125 103 100 85 114 160 157 161 157 225 224 187 188 182 204 207 176 163 154 172 165 152 165 172 172 192 183 200 192 181 179 183 188 192 191 191 190 188 186 188 189 191 195 197 202 202 203 205 204 204 202 206 206 207 210 212 214 207 195 179 167 164 158 151 128 115 108 100 94 88 90 93 103 117 122 126 134 145 153 160 161 156 153 154 152 143 136 128 117 108 103 109 117 119 119 121
144 122 77 88 131 166 176 166 125 141 235 199 176 179 170 200 192 178 175 162 161 162 160 173 185 216 220 190 197 188 181 181 183 188 194 193 193 194 193 192 194 195 195 198 200 204 206 208 208 207 207 207 209 208 208 209 211 213 211 207 197 186 183 177 170 152 138 127 114 105 97 100 102 108 121 129 130 137 148 157 164 161 156 157 160 157 149 142 132 117 106 101 106 119 126 128 130
139 107 67 88 163 192 188 169 162 170 217 193 176 175 158 167 180 180 183 172 166 164 176 190 192 218 223 193 169 180 183 184 183 187 193 195 195 196 197 197 199 200 201 203 204 206 208 211 211 210 209 211 212 211 210 210 212 212 212 213 208 202 200 200 192 174 163 152 131 121 115 115 114 118 128 135 138 140 150 160 164 158 158 163 165 163 155 147 135 120 110 103 108 123 133 137 138
137 104 98 170 180 196 189 177 190 170 169 183 183 178 161 151 171 174 169 167 166 166 189 193 193 212 202 189 183 182 186 185 185 187 190 192 195 197 198 201 204 208 209 207 208 210 211 212 213 212 212 214 214 214 214 212 214 214 214 215 215 211 207 212 208 196 192 184 161 139 133 136 132 131 136 140 141 143 152 163 162 159 163 167 171 172 162 152 143 129 120 112 116 130 142 146 147
123 104 112 214 201 200 188 178 190 174 166 177 178 179 169 165 168 167 165 161 162 165 192 192 196 202 185 189 196 188 189 189 188 189 190 191 194 198 201 204 208 213 215 213 212 213 214 215 214 214 215 216 216 217 217 216 216 216 217 217 219 218 214 216 215 211 207 203 194 168 153 155 154 151 152 153 152 152 159 165 163 164 170 173 177 179 169 159 152 142 133 124 124 138 153 156 156
135 112 128 237 216 203 208 199 199 201 183 167 169 177 170 167 167 170 172 160 171 189 191 191 196 193 184 186 190 189 192 192 192 194 196 197 199 201 204 207 211 215 217 217 216 216 216 217 217 217 217 218 219 220 219 220 219 219 220 221 222 222 221 219 217 218 215 214 210 200 187 176 179 176 171 172 168 165 167 167 167 168 174 176 179 180 174 168 164 158 148 137 131 142 160 165 165
164 131 184 227 192 174 212 218 202 209 198 172 165 163 168 171 170 176 163 141 227 222 202 203 203 192 184 182 184 189 193 195 195 198 201 204 207 208 209 211 213 216 218 219 220 221 219 218 219 218 219 220 221 223 223 223 223 222 222 225 226 225 226 225 223 222 221 221 217 214 210 196 194 193 187 186 185 182 181 179 176 176 181 181 182 185 183 179 176 173 165 155 143 146 165 173 173
132 156 255 192 157 153 209 169 188 202 186 168 159 154 173 173 176 188 171 163 224 221 211 211 212 203 198 192 188 189 194 198 199 201 204 208 213 215 216 216 217 219 220 219 221 223 222 220 220 220 220 221 222 223 225 226 226 226 226 226 226 227 229 230 229 226 226 226 224 221 220 214 204 201 199 196 195 196 198 199 192 186 190 194 196 198 196 191 187 186 179 170 161 159 172 179 180
142 260 303 161 187 199 49 116 171 183 169 164 165 165 170 165 187 202 191 204 219 222 220 215 217 215 212 205 196 194 197 201 204 206 208 210 215 220 222 222 222 224 225 225 223 223 224 221 221 222 221 221 222 222 224 228 229 229 230 230 228 229 231 233 233 231 231 231 230 228 227 227 220 213 211 207 203 202 206 210 208 203 200 205 209 208 208 204 197 195 190 183 178 173 179 184 184
128 164 267 130 178 148 32 142 150 167 170 168 168 166 168 167 184 204 209 223 225 233 228 217 221 218 214 210 206 207 207 209 212 213 214 217 220 224 227 227 228 230 233 234 229 227 228 225 223 223 223 222 223 223 224 228 232 232 231 232 231 230 231 236 237 234 234 234 234 231 229 228 228 227 223 219 213 206 208 213 218 219 213 211 216 216 215 215 209 204 200 195 193 186 186 190 191
102 141 182 120 117 105 65 122 141 153 165 165 165 164 176 178 179 215 222 227 223 229 230 221 221 216 216 216 216 217 214 215 217 216 217 220 223 225 228 228 229 231 234 236 235 233 231 232 230 226 223 223 224 224 226 229 233 235 234 233 232 230 230 235 239 236 234 236 237 233 229 227 231 234 231 225 218 213 210 213 221 228 227 222 222 222 218 221 221 217 213 207 204 198 194 196 197
153 132 147 122 100 101 89 116 130 139 151 158 166 156 175 184 243 258 236 230 219 221 221 217 214 213 217 219 222 223 222 222 220 220 221 220 222 224 227 228 229 231 233 235 236 236 232 233 235 233 227 224 226 226 227 230 231 235 238 237 234 232 231 232 237 237 233 234 237 236 231 228 230 235 236 230 222 219 215 214 220 227 233 231 228 228 224 224 228 229 226 218 214 207 202 200 201
139 118 109 98 93 103 101 121 123 130 137 154 170 158 252 176 191 262 247 229 215 213 211 211 209 211 216 220 225 227 230 229 226 226 223 223 223 225 226 226 230 231 232 234 234 236 233 232 235 236 233 227 227 228 229 231 231 231 236 241 239 235 234 233 235 238 236 234 236 237 234 231 230 233 237 237 231 225 221 216 218 225 233 234 231 229 229 228 227 229 227 223 222 217 209 203 204
131 119 93 48 62 93 92 117 122 124 118 150 159 140 317 107 179 242 244 223 213 212 210 213 214 217 219 222 226 228 231 231 231 230 227 230 232 232 230 229 233 233 233 235 234 235 234 233 234 236 235 231 229 230 231 233 233 230 232 240 244 242 239 237 237 239 239 237 237 237 237 237 236 236 238 242 244 241 236 225 218 223 231 236 235 232 231 231 228 226 224 223 224 222 215 208 206
126 117 91 4 19 46 11 96 116 129 105 132 126 95 290 231 226 238 238 223 216 211 212 216 219 223 225 225 226 228 231 229 229 231 232 237 241 242 241 239 239 239 240 239 237 237 235 234 234 235 234 232 232 231 231 233 235 233 232 237 242 245 245 243 241 242 245 245 242 237 238 243 244 246 247 248 250 252 252 247 239 238 238 238 238 237 236 234 232 228 226 225 225 223 220 213 209
120 89 97 50 21 356 269 18 52 137 112 139 128 220 271 253 239 231 210 207 210 210 215 220 224 227 228 228 229 231 232 231 232 235 238 240 242 244 246 245 242 244 245 242 240 240 238 235 233 234 233 232 235 233 231 232 234 235 235 235 238 243 245 247 243 240 246 250 248 244 240 243 246 247 248 250 252 250 249 253 253 252 251 246 239 239 240 239 237 234 232 230 228 224 221 217 213
106 70 67 77 116 261 290 335 156 141 151 167 122 193 263 273 256 224 213 218 213 216 219 223 228 230 231 231 233 236 236 235 238 240 241 243 244 245 246 245 243 244 245 243 244 243 241 238 235 233 233 234 237 237 237 235 235 236 236 237 238 240 242 246 245 243 244 242 247 254 249 248 252 248 249 252 252 251 252 253 251 250 256 256 243 238 239 239 238 237 237 235 231 225 219 216 215
40 103 310 357 155 256 306 292 179 156 170 114 112 204 265 275 291 257 235 232 220 224 228 228 231 232 233 234 236 240 241 240 242 242 242 243 244 245 247 247 245 245 245 245 245 244 242 240 237 236 235 236 238 240 242 239 239 238 237 238 238 240 241 239 240 247 245 236 243 256 249 248 247 244 253 254 247 250 258 257 251 247 252 259 253 243 238 238 238 239 240 237 234 228 219 214 213
358 106 186 241 162 250 309 281 241 157 128 59 106 217 267 276 293 347 276 228 212 222 234 233 235 236 235 237 239 243 245 244 244 245 244 243 243 245 246 246 246 247 248 248 247 245 244 241 239 239 237 239 241 242 244 241 241 240 240 240 238 240 240 235 236 242 241 236 243 250 245 243 241 241 251 249 244 253 255 250 248 245 248 256 258 249 239 237 240 242 242 239 235 231 223 215 210
289 59 127 209 178 182 259 274 286 96 125 257 38 238 253 272 285 300 312 217 211 223 236 238 240 241 241 241 242 245 248 249 248 249 250 249 249 249 246 245 245 246 246 247 248 247 246 245 244 243 242 242 243 245 245 243 241 241 241 241 240 241 241 240 240 241 239 238 243 246 242 242 243 245 248 243 246 255 251 243 240 240 248 256 254 249 239 234 236 241 243 240 235 230 225 218 212
188 183 147 197 198 197 225 236 250 73 104 205 105 262 260 273 287 283 265 225 234 242 245 249 248 246 247 246 246 247 250 254 256 257 258 257 257 254 250 246 244 245 245 245 246 246 245 245 244 245 245 243 243 245 245 243 242 242 242 241 241 241 242 243 243 244 243 242 243 243 243 244 247 249 243 240 248 254 250 245 242 241 251 259 252 247 241 232 231 237 239 239 233 225 222 222 218
175 176 144 155 176 223 239 245 264 122 121 210 210 230 266 276 287 281 266 254 261 263 262 261 258 254 252 250 250 252 254 259 262 262 261 259 258 255 249 246 244 245 246 245 245 244 243 243 242 242 243 243 243 244 243 243 242 241 242 242 243 243 243 244 244 246 245 244 245 244 245 247 252 251 239 236 251 256 249 246 246 247 251 255 252 247 242 234 232 239 240 237 231 220 214 218 221
146 131 107 139 163 226 240 257 305 90 141 237 236 239 272 273 274 274 271 274 275 269 266 262 259 257 256 255 256 257 258 261 264 263 259 257 256 253 248 244 242 243 245 246 245 245 244 243 242 242 242 243 243 244 244 245 244 244 244 245 247 248 247 247 247 248 248 248 248 246 246 243 245 248 242 242 255 253 243 240 246 252 251 250 249 246 241 236 236 241 241 237 231 222 213 212 217
117 135 130 117 164 217 222 209 318 10 148 256 345 307 272 266 268 271 272 276 264 258 257 257 257 257 258 258 258 259 261 263 264 262 260 256 254 251 249 245 241 243 245 246 247 247 246 244 244 244 244 245 246 248 248 248 249 250 251 252 254 255 254 254 253 253 253 252 251 249 247 244 238 239 241 246 251 247 236 234 248 259 255 247 244 243 239 236 236 241 244 237 228 224 221 217 214
98 126 133 138 189 208 284 298 338 16 127 259 354 343 275 267 267 266 262 253 253 255 252 254 258 257 258 258 259 261 263 265 264 263 261 259 257 252 249 246 245 245 245 246 247 248 247 246 246 245 245 246 248 250 250 250 252 253 255 256 258 259 258 257 257 257 257 255 255 252 250 249 243 237 237 240 247 249 239 234 253 265 257 244 237 237 238 237 237 242 246 238 227 222 223 223 219
93 115 133 165 198 131 189 257 331 16 66 214 337 315 280 281 288 272 259 250 254 259 256 256 257 257 260 261 262 264 265 266 265 263 261 257 254 250 247 247 246 246 245 244 245 246 248 248 249 248 247 248 249 250 251 251 253 253 255 256 257 257 257 256 256 257 257 257 256 255 252 250 248 243 240 237 240 248 244 240 254 261 254 244 235 233 240 241 239 242 244 239 231 226 224 223 221
56 143 141 161 184 162 181 195 52 15 21 44 37 331 295 305 318 285 273 263 259 259 258 258 254 254 261 263 263 263 263 264 263 263 261 252 247 246 247 249 248 247 246 247 247 247 250 251 251 251 249 250 250 250 251 251 252 252 253 254 255 255 256 256 256 258 259 260 260 259 256 251 248 243 241 240 239 242 243 243 249 250 247 245 237 235 246 245 240 244 247 244 238 233 231 227 219
283 207 172 169 165 149 126 91 74 43 355 354 31 346 288 315 310 269 296 341 295 277 270 267 264 260 259 261 263 265 265 263 262 267 263 247 239 239 243 246 247 247 247 247 248 248 250 252 252 252 251 250 250 250 250 251 251 252 253 254 255 257 260 260 262 265 266 267 267 265 262 258 253 246 241 242 241 242 243 243 247 248 246 247 239 238 252 249 243 246 249 249 243 236 235 232 225
185 225 167 146 131 122 122 117 96 108 236 318 45 143 258 313 298 265 307 336 303 298 290 276 273 269 265 269 276 276 267 261 262 264 255 238 233 235 239 243 245 247 246 244 244 245 246 248 250 251 252 251 249 248 248 249 251 252 254 256 259 262 264 265 267 268 268 267 267 266 264 262 258 252 246 242 239 240 244 243 246 247 245 246 241 242 255 253 246 248 250 250 244 237 236 236 232
194 213 125 121 118 127 137 117 104 188 228 328 17 120 223 295 269 270 325 328 302 298 287 278 279 286 287 278 276 270 250 241 246 248 241 234 236 245 248 247 246 243 243 241 240 242 243 245 247 249 251 250 248 247 248 250 252 254 257 260 263 264 265 268 268 267 266 265 263 262 261 259 257 253 248 242 236 235 239 241 244 246 244 242 238 244 255 250 244 248 249 245 239 235 237 238 235
230 183 114 112 114 121 117 96 93 50 357 309 313 121 186 270 272 301 345 322 293 284 272 278 296 308 303 271 236 216 208 208 217 221 221 225 229 240 243 239 238 237 236 237 237 240 242 243 244 246 247 247 246 247 248 251 253 256 259 261 263 265 266 268 268 268 268 266 263 260 257 255 254 252 246 240 234 232 235 238 241 243 243 241 240 248 254 250 248 249 248 244 239 237 238 238 236
169 142 93 79 73 79 79 84 96 54 24 251 250 184 195 265 282 306 350 275 256 264 267 275 302 319 320 242 176 174 185 189 190 196 206 226 233 230 226 221 222 224 224 227 229 233 237 240 242 243 245 245 245 246 248 250 253 255 258 260 264 267 268 270 270 271 270 269 267 263 258 254 252 250 245 238 233 231 233 236 238 241 243 244 246 250 252 251 251 250 247 245 242 240 240 238 237
139 115 71 63 36 35 50 52 77 61 306 254 246 233 185 265 278 258 217 219 216 237 285 287 310 338 354 111 141 152 160 164 163 152 163 236 255 245 236 223 214 214 215 219 224 228 234 238 240 242 243 243 243 244 245 248 251 254 257 261 265 268 270 272 273 273 273 272 271 267 262 257 252 249 247 240 233 231 232 235 238 240 242 244 246 248 251 253 252 249 246 243 242 242 242 239 238
116 90 90 86 6 12 25 2 43 97 257 260 264 255 168 222 260 251 240 254 224 207 259 272 295 332 351 49 156 148 147 149 141 118 109 253 274 267 253 231 218 217 216 217 221 225 231 235 237 240 238 238 239 239 242 246 249 253 257 261 265 268 271 272 274 276 277 276 275 272 265 258 253 249 246 241 233 230 232 234 237 238 239 241 244 246 250 254 252 247 244 241 240 241 241 239 238
77 99 108 99 11 15 357 315 350 223 245 263 271 225 209 233 246 259 264 267 244 223 235 244 274 320 346 10 186 162 148 144 129 110 60 350 324 291 255 238 232 228 223 219 219 222 227 231 235 236 235 234 235 236 240 245 248 252 256 260 264 267 269 270 273 276 277 279 278 275 268 260 255 251 248 245 238 233 233 234 236 238 238 240 244 246 249 253 251 245 243 244 244 243 242 241 240
121 134 129 127 121 106 243 264 283 257 257 293 281 237 262 267 256 250 252 258 265 257 256 258 278 310 331 325 182 172 151 145 136 106 90 160 240 247 231 234 234 231 224 214 210 213 220 227 232 233 233 231 231 234 238 242 246 251 256 260 262 264 267 269 272 275 277 278 279 277 272 263 257 255 254 251 244 237 235 237 238 239 241 244 247 248 249 252 251 248 246 246 247 246 243 241 240
166 160 129 144 155 153 201 216 211 241 273 302 289 248 200 217 268 251 252 275 285 273 270 277 282 293 303 265 174 186 181 168 178 165 151 180 203 211 215 223 225 219 208 200 201 208 218 226 231 231 230 230 232 236 239 242 246 251 255 257 260 262 265 268 271 274 276 278 279 278 275 267 260 257 257 255 250 242 237 237 240 242 244 246 250 250 249 250 251 248 246 246 245 242 239 239 239
236 126 105 156 182 142 140 183 177 176 300 293 250 242 212 214 285 280 272 290 285 268 269 278 277 269 259 241 214 212 207 199 216 210 181 195 203 205 210 216 219 209 197 197 204 212 220 228 234 235 231 232 236 238 241 243 246 251 252 255 259 261 264 267 270 273 276 278 279 277 274 269 262 257 255 251 249 250 245 238 237 241 245 246 248 248 246 247 249 247 243 241 240 237 236 237 237
163 122 169 210 170 112 113 201 44 83 231 268 221 254 291 320 298 297 305 299 290 282 277 269 256 240 235 239 242 240 237 238 244 240 230 224 212 204 204 210 216 209 201 205 210 215 223 232 237 238 235 235 239 241 244 246 248 250 252 255 258 261 264 267 270 273 275 276 275 273 272 269 263 257 254 248 243 246 249 244 239 240 244 247 248 248 245 245 248 248 244 241 239 237 236 236 236
122 170 203 189 120 90 108 171 5 47 236 275 283 241 287 323 277 315 337 283 276 284 277 265 258 245 237 244 249 250 253 268 277 275 268 251 228 209 199 202 209 211 212 218 222 222 228 241 248 248 245 243 244 245 246 248 249 249 251 254 257 260 263 266 268 271 273 274 273 271 271 270 265 258 252 248 242 240 243 245 244 245 246 248 249 249 247 247 247 248 247 245 243 241 240 238 237
121 177 170 124 143 171 102 146 175 137 229 278 305 276 257 210 227 294 293 225 246 267 273 264 259 253 245 241 242 247 258 277 301 316 308 291 253 219 197 193 198 208 218 225 231 231 231 244 259 262 260 256 251 249 248 249 249 249 252 256 259 261 264 265 268 270 271 272 272 272 271 269 266 259 250 246 242 241 242 243 245 249 250 252 252 248 247 247 247 249 249 248 247 246 244 241 239
61 103 111 90 130 164 164 151 164 176 197 252 309 322 264 225 215 209 209 210 212 223 252 243 237 243 248 255 272 289 301 348 19 16 356 348 340 217 168 176 201 209 220 227 235 240 240 247 271 285 283 274 263 256 253 252 253 254 257 260 263 265 267 269 270 271 271 272 272 272 271 269 266 260 252 245 241 242 244 242 244 249 252 255 256 250 246 245 246 248 250 250 249 247 244 241 239
124 135 167 186 75 114 160 102 115 142 159 188 266 297 267 245 214 197 204 206 201 197 209 237 243 251 267 286 296 315 68 60 40 24 5 352 344 337 115 163 251 236 239 243 244 250 253 259 299 321 317 306 285 266 256 254 255 258 261 263 266 268 270 271 272 271 271 271 271 271 270 269 267 262 254 247 241 241 244 243 244 249 253 255 257 253 249 248 246 248 250 248 247 247 246 243 241
162 176 189 181 152 123 148 227 251 116 143 169 174 262 264 249 208 204 207 207 213 214 216 240 259 266 276 284 125 99 71 40 16 7 357 346 339 336 342 315 290 286 276 267 263 256 248 253 273 290 310 325 313 283 264 260 262 264 267 268 269 270 271 273 274 274 274 273 273 273 273 271 269 265 259 251 245 242 243 244 245 248 252 255 256 255 254 253 252 253 254 250 247 248 248 247 245